Flag for U.S.A. Weather past 2 weeks in Midway, Midway Atoll, U.S.A.

Now
70 °F

Broken clouds.


Feels Like: 72 °F
Forecast: 64 / 72 °F
Wind: 9 mph from Northwest

Location: Midway Island Naval Air Facility

Current Time: Dec 28, 2014 at 8:24:42 AM

Latest Report: Dec 28, 2014 at 7:56 AM


Visibility: 10 mi

Pressure: 30.90 "Hg

Humidity: 76%

Dew point: 62 °F

Location of MidwayLocation

Historic Weather in Midway — Graph

°F

Midway temperature yesterday

Maximum temperature yesterday: 78 °F (at 11:56 AM)
Minimum temperature yesterday: 61 °F (at 1:56 AM)
Average temperature yesterday: 71 °F

Past Weeks' High & Low Weather Summary

 TemperatureHumidityPressure
High81 °F (Dec 18, 12:56 PM)100% (Dec 16, 3:21 AM)31.00 "Hg (Dec 16, 3:21 AM)
Low61 °F (Dec 21, 1:56 AM)42% (Dec 21, 11:56 AM)28.05 "Hg (Dec 18, 4:56 AM)
Average70 °F77%29.39 "Hg
* Reported Dec 13 8:56 AM — Dec 28 6:56 AM, Midway, Weather by CustomWeather, © 2014

Note: Actual official high and low records may vary slightly from our data, if they occured in-between our weather recording intervals... More about our weather records

Advertising

Midway weather history for previous 24 hours

 ConditionsComfort  
Time TempWeatherWind HumidityBarometerVisibility
6:56 AM
Dec 28
70 °FPassing clouds.12 mph84%30.89 "Hg10 mi
5:56 AM70 °FPassing clouds.12 mph87%30.88 "Hg10 mi
5:05 AM70 °FLight rain. Partly cloudy.12 mph94%29.96 "Hg10 mi
4:13 AM70 °FLight rain. Fog.18 mph88%29.96 "Hg5 mi
3:56 AM73 °FPassing clouds.24 mph82%30.86 "Hg10 mi
3:27 AM73 °FPassing clouds.15 mph83%29.95 "Hg10 mi
2:56 AM73 °FPartly cloudy.12 mph87%30.86 "Hg10 mi
1:56 AM73 °FPassing clouds.18 mph85%30.85 "Hg10 mi
12:56 AM73 °FPassing clouds.16 mph87%30.85 "Hg10 mi
11:56 PM
Dec 27
73 °FOvercast.16 mph85%30.86 "Hg10 mi
10:56 PM74 °FPassing clouds.14 mph84%30.88 "Hg10 mi
9:56 PM74 °FOvercast.16 mph82%30.89 "Hg10 mi
8:56 PM73 °FClear.14 mph85%30.89 "Hg10 mi
7:56 PM73 °FClear.16 mph85%30.89 "Hg10 mi
6:56 PM73 °FClear.14 mph82%30.89 "Hg10 mi
5:56 PM73 °FSunny.13 mph85%30.88 "Hg10 mi
4:56 PM75 °FSunny.18 mph77%30.86 "Hg10 mi
3:56 PM77 °FSunny.21 mph74%30.85 "Hg10 mi
2:56 PM78 °FSunny.18 mph72%30.85 "Hg10 mi
1:56 PM77 °FBroken clouds.16 mph79%30.85 "Hg10 mi
12:56 PM78 °FPassing clouds.10 mph74%30.88 "Hg10 mi
11:56 AM78 °FScattered clouds.9 mph72%30.93 "Hg10 mi
10:56 AM77 °FSunny.9 mph71%30.94 "Hg10 mi
9:56 AM74 °FPartly sunny.12 mph76%30.95 "Hg10 mi
8:56 AM69 °FOvercast.6 mph90%30.94 "Hg10 mi
Weather by CustomWeather, © 2014

See weather overviewHow to use our weather pages